DL7MAP-13 Weather Reports


Display with metric or nautical units.
time (UTC)temp
F
wind
direction
speed
MPH
gust
MPH
rain 1hr
in
rain 24hr
in
rain mn
in
humidity
%
barometer
mb
20260510144307 73 0.0 0.0 0.00 0.00 0.00 40 1004.1
20260510142807 74 0.0 0.0 0.00 0.00 0.00 38 1005.6
20260510141307 72 0.0 0.0 0.00 0.00 0.00 42 1006.3
20260510135807 71 0.0 0.0 0.00 0.00 0.00 43 1005.3
20260510134307 73 0.0 0.0 0.00 0.00 0.00 42 1006.2
20260510132807 71 0.0 0.0 0.00 0.00 0.00 44 1007.2
20260510131307 69 0.0 0.0 0.00 0.00 0.00 45 1006.5
20260510125807 71 0.0 0.0 0.00 0.00 0.00 44 1006.7
20260510124307 71 0.0 0.0 0.00 0.00 0.00 44 1006.7
20260510122807 69 0.0 0.0 0.00 0.00 0.00 45 1005.2
20260510121307 71 0.0 0.0 0.00 0.00 0.00 44 1008.3
20260510115807 71 0.0 0.0 0.00 0.00 0.00 44 1006.4
20260510114307 70 0.0 0.0 0.00 0.00 0.00 46 1007.7
20260510112807 69 0.0 0.0 0.00 0.00 0.00 50 1007.7
20260510111307 68 0.0 0.0 0.00 0.00 0.00 51 1007.6
20260510105807 67 0.0 0.0 0.00 0.00 0.00 52 1007.7
20260510104307 66 0.0 0.0 0.00 0.00 0.00 52 1006.5
20260510102807 66 0.0 0.0 0.00 0.00 0.00 52 1008.0
20260510101307 66 0.0 0.0 0.00 0.00 0.00 51 1008.4
20260510095807 66 0.0 0.0 0.00 0.00 0.00 52 1009.3
20260510094307 66 0.0 0.0 0.00 0.00 0.00 53 1008.6
20260510092807 65 0.0 0.0 0.00 0.00 0.00 54 1009.1
20260510091309 64 0.0 0.0 0.00 0.00 0.00 55 1009.5
20260510085807 64 0.0 0.0 0.00 0.00 0.00 56 1009.7
20260510084307 64 0.0 0.0 0.00 0.00 0.00 58 1009.5
20260510082807 63 0.0 0.0 0.00 0.00 0.00 59 1010.3
20260510081307 61 0.0 0.0 0.00 0.00 0.00 61 1010.0
20260510075807 60 0.0 0.0 0.00 0.00 0.00 62 1009.7
20260510074307 59 0.0 0.0 0.00 0.00 0.00 63 1009.0
20260510072807 58 0.0 0.0 0.00 0.00 0.00 65 1010.2
20260510071307 58 0.0 0.0 0.00 0.00 0.00 68 1010.5
20260510065807 57 0.0 0.0 0.00 0.00 0.00 71 1010.8
20260510064307 54 0.0 0.0 0.00 0.00 0.00 74 1010.1
20260510062807 53 0.0 0.0 0.00 0.00 0.00 75 1010.3
20260510061307 54 0.0 0.0 0.00 0.00 0.00 75 1010.5
20260510055807 54 0.0 0.0 0.00 0.00 0.00 76 1010.8
20260510054307 53 0.0 0.0 0.00 0.00 0.00 78 1011.0
20260510052807 51 0.0 0.0 0.00 0.00 0.00 82 1010.2
20260510051308 50 0.0 0.0 0.00 0.00 0.00 83 1010.9
20260510045807 48 0.0 0.0 0.00 0.00 0.00 85 1010.8
20260510044307 46 0.0 0.0 0.00 0.00 0.00 87 1011.2
20260510042807 44 0.0 0.0 0.00 0.00 0.00 88 1011.2
20260510041307 42 0.0 0.0 0.00 0.00 0.00 88 1011.1
20260510035807 40 0.0 0.0 0.00 0.00 0.00 88 1011.2
20260510034307 39 0.0 0.0 0.00 0.00 0.00 88 1011.2
20260510032807 39 0.0 0.0 0.00 0.00 0.00 88 1011.3
20260510031307 39 0.0 0.0 0.00 0.00 0.00 88 1010.9
20260510025807 40 0.0 0.0 0.00 0.00 0.00 88 1011.3
20260510024307 40 0.0 0.0 0.00 0.00 0.00 88 1011.2
20260510022807 40 0.0 0.0 0.00 0.00 0.00 88 1011.5
20260510021307 40 0.0 0.0 0.00 0.00 0.00 87 1011.6
20260510015807 40 0.0 0.0 0.00 0.00 0.00 87 1011.8
20260510014307 40 0.0 0.0 0.00 0.00 0.00 87 1011.4
20260510012807 40 0.0 0.0 0.00 0.00 0.00 87 1012.1
20260510011307 41 0.0 0.0 0.00 0.00 0.00 87 1012.2
20260510005807 41 0.0 0.0 0.00 0.00 0.00 87 1012.5
20260510004307 41 0.0 0.0 0.00 0.00 0.00 87 1012.6
20260510002807 41 0.0 0.0 0.00 0.00 0.00 86 1012.9
20260510001307 41 0.0 0.0 0.00 0.00 0.00 86 1013.2
20260509235807 42 0.0 0.0 0.00 0.00 0.00 86 1013.0
20260509234307 42 0.0 0.0 0.00 0.00 0.00 86 1013.3
20260509232807 43 0.0 0.0 0.00 0.00 0.00 86 1013.4
20260509231307 43 0.0 0.0 0.00 0.00 0.00 86 1013.6
20260509225807 43 0.0 0.0 0.00 0.00 0.00 85 1013.6
20260509224307 44 0.0 0.0 0.00 0.00 0.00 85 1013.5
20260509222807 44 0.0 0.0 0.00 0.00 0.00 85 1013.6
20260509221307 45 0.0 0.0 0.00 0.00 0.00 84 1013.8
20260509215807 45 0.0 0.0 0.00 0.00 0.00 84 1013.9
20260509214307 46 0.0 0.0 0.00 0.00 0.00 83 1013.5
20260509212807 46 0.0 0.0 0.00 0.00 0.00 83 1013.7
20260509211307 47 0.0 0.0 0.00 0.00 0.00 82 1013.8
20260509205807 47 0.0 0.0 0.00 0.00 0.00 81 1013.9
20260509204307 48 0.0 0.0 0.00 0.00 0.00 80 1014.0
20260509202807 49 0.0 0.0 0.00 0.00 0.00 79 1013.8
20260509201307 50 0.0 0.0 0.00 0.00 0.00 78 1013.8
20260509195807 51 0.0 0.0 0.00 0.00 0.00 77 1013.7
20260509194307 52 0.0 0.0 0.00 0.00 0.00 75 1013.6
20260509192807 53 0.0 0.0 0.00 0.00 0.00 73 1013.6
20260509191307 54 0.0 0.0 0.00 0.00 0.00 71 1013.6
20260509185807 56 0.0 0.0 0.00 0.00 0.00 69 1013.5
20260509184307 56 0.0 0.0 0.00 0.00 0.00 66 1013.4
20260509182807 57 0.0 0.0 0.00 0.00 0.00 64 1013.4
20260509181307 58 0.0 0.0 0.00 0.00 0.00 60 1013.6
20260509175807 60 0.0 0.0 0.00 0.00 0.00 57 1013.6
20260509172807 61 0.0 0.0 0.00 0.00 0.00 54 1014.1
20260509171307 61 0.0 0.0 0.00 0.00 0.00 53 1013.3
20260509165807 61 0.0 0.0 0.00 0.00 0.00 52 1013.0
20260509164307 62 0.0 0.0 0.00 0.00 0.00 52 1013.4
20260509162807 62 0.0 0.0 0.00 0.00 0.00 51 1013.2
20260509161307 62 0.0 0.0 0.00 0.00 0.00 51 1014.1
20260509155807 62 0.0 0.0 0.00 0.00 0.00 50 1013.4
20260509154307 63 0.0 0.0 0.00 0.00 0.00 48 1013.5
20260509152807 65 0.0 0.0 0.00 0.00 0.00 46 1013.7
20260509151307 67 0.0 0.0 0.00 0.00 0.00 45 1016.0
20260509145807 64 0.0 0.0 0.00 0.00 0.00 48 1014.5